Weather History for Rafha, Saudi Arabia

Change the Weather History Date:

Wednesday, February 13, 2013

  Actual Average Record
Temperature  
Mean Temperature 52 °F -  
Max Temperature 64 °F 68 °F 75 °F (2003)
Min Temperature 41 °F 45 °F 33 °F (1997)
Degree Days  
Heating Degree Days 12    
Growing Degree Days 2 (Base 50)    
Moisture  
Dew Point 37 °F    
Average Humidity 51    
Maximum Humidity 76    
Minimum Humidity 26    
Precipitation  
Precipitation 0.00 in - - ()
Sea Level Pressure  
Sea Level Pressure 30.15 in    
Wind  
Wind Speed 2 mph ()    
Max Wind Speed 8 mph    
Max Gust Speed -    
Visibility 6.0 miles    
Events      
Averages and records for this station are not official NWS values.
T = Trace of Precipitation, MM = Missing Value Source: Averaged Metar Reports

Daily Weather History Graph

Daily Weather History Graph

Search for Another Location

Airport:

Trip Planner

Search our weather history database for the weather conditions in past years. The results will help you decide how hot, cold, wet, or windy it might be!

Date:

Astronomy

Feb. 13, 2013 Rise Set
Actual Time 6:47 AM AST 5:53 PM AST
Civil Twilight 6:22 AM AST 6:18 PM AST
Nautical Twilight 5:54 AM AST 6:46 PM AST
Astronomical Twilight 5:26 AM AST 7:13 PM AST
Moon 8:23 AM AST (2/13) 9:11 PM AST (2/13)
Length of Visible Light 11h 55m
Length of Day
11h 06m
Waxing Crescent, 11% of the Moon is Illuminated
Feb 13
Waxing Crescent
Feb 17
First Quarter
Feb 25
Full
Mar 5
Last Quarter
Mar 11
New

Hourly Weather History & Observations

Time (AST) Temp. Dew Point Humidity Pressure Visibility Wind Dir Wind Speed Gust Speed Precip Events Conditions
12:00 AM 51 °F 36 °F 44% 30.08 in 6 mi Calm Calm - -  
12:00 AM 50.0 °F 35.6 °F 58% 30.09 in - Calm Calm - N/A   Clear
1:00 AM 48.2 °F 35.6 °F 62% 30.09 in - SSW 1.2 mph - N/A   Clear
2:00 AM 48.2 °F 35.6 °F 62% 30.09 in - Calm Calm - N/A   Clear
3:00 AM 46 °F 36 °F 57% 30.10 in 6 mi Calm Calm - -  
3:00 AM 46.4 °F 35.6 °F 66% 30.09 in - Calm Calm - N/A   Clear
4:00 AM 46.4 °F 35.6 °F 66% 30.12 in - Calm Calm - N/A   Clear
5:00 AM 42.8 °F 33.8 °F 70% 30.12 in - Calm Calm - N/A   Clear
6:00 AM 43 °F 34 °F 60% 30.15 in 6 mi WNW 2.3 mph - -  
6:00 AM 42.8 °F 33.8 °F 70% 30.15 in - WNW 2.3 mph - N/A   Clear
7:00 AM 42.8 °F 35.6 °F 76% 30.15 in - Calm Calm - N/A   Clear
8:00 AM 42.8 °F 35.6 °F 76% 30.15 in - Calm Calm - N/A   Clear
9:00 AM 50 °F 39 °F 56% 30.22 in 6 mi Calm Calm - -  
9:00 AM 50.0 °F 39.2 °F 66% 30.21 in - Calm Calm - N/A   Clear
10:00 AM 55.4 °F 41.0 °F 58% 30.21 in - Calm Calm - N/A   Clear
11:00 AM 59.0 °F 41.0 °F 51% 30.21 in - East 2.3 mph - N/A   Clear
12:00 PM 61 °F 39 °F 33% 30.19 in 6 mi Calm Calm - -  
12:00 PM 60.8 °F 39.2 °F 45% 30.21 in - Calm Calm - N/A   Clear
1:00 PM 62.6 °F 39.2 °F 42% 30.18 in - NNW 3.5 mph - N/A   Clear
2:00 PM 64.4 °F 37.4 °F 37% 30.15 in - North 5.8 mph - N/A   Clear
3:00 PM 64 °F 37 °F 26% 30.13 in 6 mi NNW 6.9 mph - -  
3:00 PM 64.4 °F 37.4 °F 37% 30.12 in - NNW 6.9 mph - N/A   Clear
4:00 PM 64.4 °F 37.4 °F 37% 30.15 in - North 8.1 mph - N/A   Clear
5:00 PM 62.6 °F 37.4 °F 39% 30.15 in - North 5.8 mph - N/A   Clear
6:00 PM 60 °F 37 °F 31% 30.16 in 6 mi NNE 6.9 mph - -  
6:00 PM 60.8 °F 37.4 °F 42% 30.15 in - NNE 6.9 mph - N/A   Clear
7:00 PM 59.0 °F 37.4 °F 45% 30.15 in - NNE 8.1 mph - N/A   Clear
8:00 PM 57.2 °F 37.4 °F 48% 30.15 in - NNE 6.9 mph - N/A   Clear
9:00 PM 56 °F 36 °F 34% 30.18 in 6 mi NNE 5.8 mph - -  
9:00 PM 55.4 °F 35.6 °F 47% 30.18 in - NNE 5.8 mph - N/A   Clear
10:00 PM 55.4 °F 35.6 °F 47% 30.18 in - NNE 5.8 mph - N/A   Clear
11:00 PM 53.6 °F 35.6 °F 51% 30.18 in - NE 3.5 mph - N/A   Clear